Regional Weather Roundup
Issued by NWS

Home | Current Version | Previous Version | Graphics & Text | Print | Product List | Glossary Off
Versions: 1 2 3 4 5 6 7 8 9 10 11 12 13 14 15 16 17 18 19 20 21 22 23 24 25 26 27 28 29 30 31 32 33 34 35 36 37 38 39 40 41 42 43 44 45 46 47 48 49 50

000
ASUS43 KOAX 210910
RWRNE

WEATHER ROUNDUP FOR NEBRASKA
NATIONAL WEATHER SERVICE OMAHA NE
400 AM CDT MON MAY 21 2018

NOTES: SATELLITE DATA IS BEING USED TO AUGMENT CLOUD COVER ABOVE
       12000 FEET.
       "FAIR" INDICATES FEW OR NO CLOUDS BELOW 12,000 FEET WITH NO
       SIGNIFICANT WEATHER AND/OR OBSTRUCTIONS TO VISIBILITY.


NEZ001>004-019>022-054>056-211000-
NEBRASKA PANHANDLE

CITY           SKY/WX    TMP DP  RH WIND       PRES   REMARKS
SCOTTSBLUFF    PTCLDY    46  45  96 E7        30.05F
ALLIANCE       CLEAR     40  40 100 SE7       30.05F
CHADRON        CLEAR     41  39  93 S3        30.03F
GORDON         FAIR      43  38  82 CALM      30.05S
KIMBALL        PTCLDY    45  45  99 S12       30.06F
SIDNEY         PTCLDY    43  43 100 SE8       30.08F
$$

NEZ057>060-069>072-079>082-211000-
SOUTHWEST NEBRASKA

CITY           SKY/WX    TMP DP  RH WIND       PRES   REMARKS
NORTH PLATTE   PTCLDY    51  50  96 CALM      30.09F
IMPERIAL       PTCLDY    45  45 100 S5        30.09F
LEXINGTON      MOCLDY    48  47  98 W3        30.09F FOG
MCCOOK         PTCLDY    48  48 100 CALM      30.09F
OGALLALA       PTCLDY    48  46  91 CALM      30.08F
$$

NEZ005>010-023>029-035>040-094-211000-
NORTH CENTRAL NEBRASKA

CITY           SKY/WX    TMP DP  RH WIND       PRES   REMARKS
VALENTINE      PTCLDY    47  45  93 CALM      30.05F
AINSWORTH      PTCLDY    46  46 100 SW5       30.06S
BROKEN BOW     FOG       46  46 100 CALM      30.08S VSB 1/2
O`NEILL        CLOUDY    54  53  97 CALM      30.07R
ORD            CLEAR     45  45 100 CALM      30.06S
THEDFORD       PTCLDY    47  47  97 S3        30.08S
$$

NEZ041-046>049-061>064-073>077-083>087-211000-
SOUTH CENTRAL NEBRASKA

CITY           SKY/WX    TMP DP  RH WIND       PRES   REMARKS
GRAND ISLAND   FOG       47  46  97 W5        30.09R VSB 1/4
AURORA         FOG       47  47 100 SW5       30.08R VSB 1/4
HASTINGS       FOG       49  49 100 CALM      30.09S VSB 1/2
HEBRON         CLOUDY    55  52  92 NW3       30.08S
HOLDREGE       FOG       46  46 100 CALM      30.09S VSB 1/4
KEARNEY        PTCLDY    48  46  93 W5        30.10S FOG
YORK           CLOUDY    54  54 100 NW3       30.07R
$$

NEZ011>018-030>034-042>045-211000-
NORTHEAST NEBRASKA

CITY           SKY/WX    TMP DP  RH WIND       PRES   REMARKS
NORFOLK        CLOUDY    52  51  97 NW5       30.05F
ALBION         PTCLDY    49  49  98 CALM      30.07S FOG
BLAIR          DRZL/FOG  55  55  98 W3        30.03S VSB 3/4
COLUMBUS       CLOUDY    53  51  93 NW6       30.06F
FREMONT        CLOUDY    55  55  99 NW3       30.05S FOG
TEKAMAH        CLOUDY    55  55 100 NW6       30.03F FOG
WAYNE          CLOUDY    53  52  96 NW3       30.05S FOG
$$

NEZ050>053-065>068-078-088>093-211000-
SOUTHEAST NEBRASKA

CITY           SKY/WX    TMP DP  RH WIND       PRES   REMARKS
LINCOLN        CLOUDY    54  52  93 NW6       30.06S
OMAHA EPPLEY   CLOUDY    57  54  89 NW6       30.03F FOG
BEATRICE       CLOUDY    54  54  98 NW6       30.06S FOG
FALLS CITY     CLOUDY    58  54  86 NW8       30.03R
NEBRASKA CITY  CLOUDY    56  56 100 NW5       30.04S FOG
PLATTSMOUTH    CLOUDY    55  55 100 W7        30.03F FOG
$$

NEZ044-045-051>053-067-211000-
OMAHA AREA

CITY           SKY/WX    TMP DP  RH WIND       PRES   REMARKS
OMAHA EPPLEY   CLOUDY    57  54  89 NW6       30.03F FOG
BLAIR          DRZL/FOG  55  55  98 W3        30.03S VSB 3/4
FREMONT        CLOUDY    55  55  99 NW3       30.05S FOG
MILLARD        CLOUDY    56  55  96 NW5       30.03F FOG
OFFUTT AFB     CLOUDY    56  56 100 W8        30.02F FOG
PLATTSMOUTH    CLOUDY    55  55 100 W7        30.03F FOG
WAHOO          CLOUDY    55  53  93 NW8       30.05S
$$




USA.gov is the U.S. government's official web portal to all federal, state and local government web resources and services.